datetime,storage
2003-01-01,6723.0
2003-01-02,6723.0
2003-01-03,6723.0
2003-01-04,6723.0
2003-01-05,6723.0
2003-01-06,6723.0
2003-01-07,6723.0
2003-01-08,6726.16667
2003-01-09,6729.33333
2003-01-10,6732.5
2003-01-11,6735.66667
2003-01-12,6738.83333
2003-01-13,6742.0
2003-01-14,6742.0
2003-01-15,6742.0
2003-01-16,6742.0
2003-01-17,6742.0
2003-01-18,6742.0
2003-01-19,6742.0
2003-01-20,6742.0
2003-01-21,6742.0
2003-01-22,6742.0
2003-01-23,6742.0
2003-01-24,6742.0
2003-01-25,6742.0
2003-01-26,6742.0
2003-01-27,6742.0
2003-01-28,6742.0
2003-01-29,6742.0
2003-01-30,6742.0
2003-01-31,6742.0
2003-02-01,6742.0
2003-02-02,6760.0
2003-02-03,6779.0
2003-02-04,6782.8
2003-02-05,6786.6
2003-02-06,6790.4
2003-02-07,6794.2
2003-02-08,6798.0
2003-02-09,6799.72727
2003-02-10,6801.45455
2003-02-11,6803.18182
2003-02-12,6804.90909
2003-02-13,6806.63636
2003-02-14,6808.36364
2003-02-15,6810.09091
2003-02-16,6811.81818
2003-02-17,6813.54545
2003-02-18,6815.27273
2003-02-19,6817.0
2003-02-20,6820.8
2003-02-21,6824.6
2003-02-22,6828.4
2003-02-23,6832.2
2003-02-24,6836.0
2003-02-25,6836.0
2003-02-26,6836.0
2003-02-27,6836.0
2003-02-28,6836.0
2003-03-01,6836.0
2003-03-02,6836.0
2003-03-03,6836.0
2003-03-04,6840.75
2003-03-05,6845.5
2003-03-06,6850.25
2003-03-07,6855.0
2003-03-08,6855.0
2003-03-09,6855.0
2003-03-10,6855.0
2003-03-11,6857.85714
2003-03-12,6860.71429
2003-03-13,6863.57143
2003-03-14,6866.42857
2003-03-15,6869.28571
2003-03-16,6872.14286
2003-03-17,6875.0
2003-03-18,6883.44444
2003-03-19,6891.88889
2003-03-20,6900.33333
2003-03-21,6908.77778
2003-03-22,6917.22222
2003-03-23,6925.66667
2003-03-24,6934.22222
2003-03-25,6943.11111
2003-03-26,6952.0
2003-03-27,6959.6
2003-03-28,6967.2
2003-03-29,6975.0
2003-03-30,6983.0
2003-03-31,6991.0
2003-04-01,6991.0
2003-04-02,6991.0
2003-04-03,6991.0
2003-04-04,6991.0
2003-04-05,6991.0
2003-04-06,6991.0
2003-04-07,6991.0
2003-04-08,7015.0
2003-04-09,7039.5
2003-04-10,7064.0
2003-04-11,7089.0
2003-04-12,7148.0
2003-04-13,7208.0
2003-04-14,7247.0
2003-04-15,7247.0
2003-04-16,7247.0
2003-04-17,7247.0
2003-04-18,7247.0
2003-04-19,7238.0
2003-04-20,7229.0
2003-04-21,7218.5
2003-04-22,7208.0
2003-04-23,7229.0
2003-04-24,7247.0
2003-04-25,7266.0
2003-04-26,7284.0
2003-04-27,7303.0
2003-04-28,7322.0
2003-04-29,7331.0
2003-04-30,7340.0
2003-05-01,7340.0
2003-05-02,7340.0
2003-05-03,7328.0
2003-05-04,7315.66667
2003-05-05,7303.0
2003-05-06,7296.66667
2003-05-07,7290.33333
2003-05-08,7284.0
2003-05-09,7288.75
2003-05-10,7293.5
2003-05-11,7298.25
2003-05-12,7303.0
2003-05-13,7331.0
2003-05-14,7359.0
2003-05-15,7473.0
2003-05-16,7589.0
2003-05-17,7706.0
2003-05-18,7825.0
2003-05-19,7855.0
2003-05-20,7886.0
2003-05-21,7946.0
2003-05-22,8007.0
2003-05-23,8254.0
2003-05-24,8352.0
2003-05-25,8372.0
2003-05-26,8391.0
2003-05-27,8401.0
2003-05-28,8411.0
2003-05-29,8411.0
2003-05-30,8411.0
2003-05-31,8411.0
2003-06-01,8372.0
2003-06-02,8312.0
2003-06-03,8332.0
2003-06-04,8352.0
2003-06-05,8372.0
2003-06-06,8391.0
2003-06-07,8384.66667
2003-06-08,8378.33333
2003-06-09,8372.0
2003-06-10,8372.0
2003-06-11,8372.0
2003-06-12,8372.0
2003-06-13,8372.0
2003-06-14,8352.0
2003-06-15,8332.0
2003-06-16,8312.0
2003-06-17,8302.5
2003-06-18,8293.0
2003-06-19,8283.0
2003-06-20,8273.0
2003-06-21,8273.0
2003-06-22,8273.0
2003-06-23,8273.0
2003-06-24,8283.0
2003-06-25,8293.0
2003-06-26,8302.5
2003-06-27,8312.0
2003-06-28,8299.33333
2003-06-29,8286.33333
2003-06-30,8273.0
2003-07-01,8273.0
2003-07-02,8263.5
2003-07-03,8254.0
2003-07-04,8249.0
2003-07-05,8244.0
2003-07-06,8239.0
2003-07-07,8234.0
2003-07-08,8229.25
2003-07-09,8224.5
2003-07-10,8219.75
2003-07-11,8215.0
2003-07-12,8166.0
2003-07-13,8117.0
2003-07-14,8069.0
2003-07-15,8014.0
2003-07-16,7960.0
2003-07-17,7906.0
2003-07-18,7821.66667
2003-07-19,7739.33333
2003-07-20,7657.0
2003-07-21,7575.66667
2003-07-22,7495.16667
2003-07-23,7416.0
2003-07-24,7329.2
2003-07-25,7243.4
2003-07-26,7152.0
2003-07-27,7061.0
2003-07-28,6971.0
2003-07-29,6894.0
2003-07-30,6817.0
2003-07-31,6742.0
2003-08-01,6667.0
2003-08-02,6597.5
2003-08-03,6528.5
2003-08-04,6460.5
2003-08-05,6393.0
2003-08-06,6322.0
2003-08-07,6248.0
2003-08-08,6200.5
2003-08-09,6153.0
2003-08-10,6106.0
2003-08-11,6059.0
2003-08-12,6022.0
2003-08-13,5985.0
2003-08-14,5949.0
2003-08-15,5912.0
2003-08-16,5894.0
2003-08-17,5876.0
2003-08-18,5858.0
2003-08-19,5858.0
2003-08-20,5858.0
2003-08-21,5854.4
2003-08-22,5850.8
2003-08-23,5847.2
2003-08-24,5843.6
2003-08-25,5840.0
2003-08-26,5831.0
2003-08-27,5822.0
2003-08-28,5813.0
2003-08-29,5804.0
2003-08-30,5795.0
2003-08-31,5786.0
2003-09-01,5786.0
2003-09-02,5786.0
2003-09-03,5780.0
2003-09-04,5774.0
2003-09-05,5768.0
2003-09-06,5762.33333
2003-09-07,5756.66667
2003-09-08,5751.0
2003-09-09,5751.0
2003-09-10,5751.0
2003-09-11,5751.0
2003-09-12,5751.0
2003-09-13,5751.0
2003-09-14,5751.0
2003-09-15,5751.0
2003-09-16,5745.85714
2003-09-17,5740.71429
2003-09-18,5735.57143
2003-09-19,5730.42857
2003-09-20,5725.28571
2003-09-21,5720.14286
2003-09-22,5715.0
2003-09-23,5715.0
2003-09-24,5715.0
2003-09-25,5715.0
2003-09-26,5710.75
2003-09-27,5706.5
2003-09-28,5702.25
2003-09-29,5698.0
2003-09-30,5698.0
2003-10-01,5698.0
2003-10-02,5698.0
2003-10-03,5698.0
2003-10-04,5698.0
2003-10-05,5698.0
2003-10-06,5698.0
2003-10-07,5698.0
2003-10-08,5698.0
2003-10-09,5698.0
2003-10-10,5698.0
2003-10-11,5698.0
2003-10-12,5698.0
2003-10-13,5698.0
2003-10-14,5698.0
2003-10-15,5692.0
2003-10-16,5686.0
2003-10-17,5680.0
2003-10-18,5674.33333
2003-10-19,5668.66667
2003-10-20,5663.0
2003-10-21,5658.5
2003-10-22,5654.0
2003-10-23,5649.5
2003-10-24,5645.0
2003-10-25,5645.0
2003-10-26,5645.0
2003-10-27,5645.0
2003-10-28,5645.0
2003-10-29,5645.0
2003-10-30,5645.0
2003-10-31,5645.0
2003-11-01,5645.0
2003-11-02,5645.0
2003-11-03,5645.0
2003-11-04,5645.0
2003-11-05,5645.0
2003-11-06,5645.0
2003-11-07,5645.0
2003-11-08,5645.0
2003-11-09,5645.0
2003-11-10,5645.0
2003-11-11,5649.5
2003-11-12,5654.0
2003-11-13,5658.5
2003-11-14,5663.0
2003-11-15,5667.25
2003-11-16,5671.5
2003-11-17,5675.75
2003-11-18,5680.0
2003-11-19,5689.0
2003-11-20,5698.0
2003-11-21,5702.25
2003-11-22,5706.5
2003-11-23,5710.75
2003-11-24,5715.0
2003-11-25,5718.0
2003-11-26,5721.0
2003-11-27,5724.0
2003-11-28,5727.0
2003-11-29,5730.0
2003-11-30,5733.0
2003-12-01,5733.0
2003-12-02,5751.0
2003-12-03,5751.0
2003-12-04,5751.0
2003-12-05,5757.8
2003-12-06,5764.6
2003-12-07,5771.6
2003-12-08,5778.8
2003-12-09,5786.0
2003-12-10,5789.0
2003-12-11,5792.0
2003-12-12,5795.0
2003-12-13,5798.0
2003-12-14,5801.0
2003-12-15,5804.0
2003-12-16,5809.14286
2003-12-17,5814.28571
2003-12-18,5819.42857
2003-12-19,5824.57143
2003-12-20,5829.71429
2003-12-21,5834.85714
2003-12-22,5840.0
2003-12-23,5842.0
2003-12-24,5844.0
2003-12-25,5846.0
2003-12-26,5848.0
2003-12-27,5850.0
2003-12-28,5852.0
2003-12-29,5854.0
2003-12-30,5856.0
2003-12-31,5858.0
2004-01-01,5858.0
2004-01-02,5861.0
2004-01-03,5864.0
2004-01-04,5867.0
2004-01-05,5870.0
2004-01-06,5873.0
2004-01-07,5876.0
2004-01-08,5883.2
2004-01-09,5890.4
2004-01-10,5897.6
2004-01-11,5904.8
2004-01-12,5912.0
2004-01-13,5918.0
2004-01-14,5924.0
2004-01-15,5930.0
2004-01-16,5936.33333
2004-01-17,5942.66667
2004-01-18,5949.0
2004-01-19,5955.0
2004-01-20,5961.0
2004-01-21,5967.0
2004-01-22,5977.8
2004-01-23,5988.8
2004-01-24,6000.2
2004-01-25,6011.2
2004-01-26,6022.0
2004-01-27,6029.6
2004-01-28,6037.2
2004-01-29,6044.6
2004-01-30,6051.8
2004-01-31,6059.0
2004-02-01,6059.0
2004-02-02,6115.0
2004-02-03,6125.85714
2004-02-04,6136.71429
2004-02-05,6147.57143
2004-02-06,6158.42857
2004-02-07,6169.28571
2004-02-08,6180.14286
2004-02-09,6191.0
2004-02-10,6202.875
2004-02-11,6214.75
2004-02-12,6226.625
2004-02-13,6238.5
2004-02-14,6250.5
2004-02-15,6263.0
2004-02-16,6275.125
2004-02-17,6287.0
2004-02-18,6294.71429
2004-02-19,6302.42857
2004-02-20,6309.85714
2004-02-21,6317.14286
2004-02-22,6324.57143
2004-02-23,6332.28571
2004-02-24,6340.0
2004-02-25,6347.2
2004-02-26,6354.4
2004-02-27,6361.4
2004-02-28,6368.2
2004-02-29,6375.0
2004-03-01,6375.0
2004-03-02,6375.0
2004-03-03,6375.0
2004-03-04,6375.0
2004-03-05,6375.0
2004-03-06,6375.0
2004-03-07,6375.0
2004-03-08,6375.0
2004-03-09,6380.14286
2004-03-10,6385.28571
2004-03-11,6390.42857
2004-03-12,6395.57143
2004-03-13,6400.71429
2004-03-14,6405.85714
2004-03-15,6411.0
2004-03-16,6435.0
2004-03-17,6459.0
2004-03-18,6483.0
2004-03-19,6507.0
2004-03-20,6531.66667
2004-03-21,6556.0
2004-03-22,6580.33333
2004-03-23,6605.0
2004-03-24,6630.0
2004-03-25,6663.2
2004-03-26,6696.4
2004-03-27,6730.6
2004-03-28,6763.8
2004-03-29,6798.0
2004-03-30,6779.0
2004-03-31,6760.0
2004-04-01,6760.0
2004-04-02,6783.75
2004-04-03,6807.5
2004-04-04,6831.25
2004-04-05,6855.0
2004-04-06,6884.5
2004-04-07,6913.0
2004-04-08,6913.0
2004-04-09,6913.0
2004-04-10,6906.66667
2004-04-11,6900.33333
2004-04-12,6894.0
2004-04-13,6884.5
2004-04-14,6875.0
2004-04-15,6865.0
2004-04-16,6855.0
2004-04-17,6855.0
2004-04-18,6855.0
2004-04-19,6855.0
2004-04-20,6842.33333
2004-04-21,6829.66667
2004-04-22,6817.0
2004-04-23,6817.0
2004-04-24,6817.0
2004-04-25,6817.0
2004-04-26,6817.0
2004-04-27,6855.0
2004-04-28,6868.33333
2004-04-29,6881.33333
2004-04-30,6894.0
2004-05-01,6894.0
2004-05-02,7000.5
2004-05-03,7109.0
2004-05-04,7322.0
2004-05-05,7531.0
2004-05-06,7608.0
2004-05-07,7686.0
2004-05-08,7765.0
2004-05-09,7845.0
2004-05-10,7926.0
2004-05-11,7886.0
2004-05-12,7845.0
2004-05-13,7825.0
2004-05-14,7805.0
2004-05-15,7739.33333
2004-05-16,7673.33333
2004-05-17,7608.0
2004-05-18,7726.0
2004-05-19,7845.0
2004-05-20,7835.0
2004-05-21,7825.0
2004-05-22,7785.0
2004-05-23,7746.0
2004-05-24,7706.0
2004-05-25,7667.0
2004-05-26,7815.0
2004-05-27,7967.0
2004-05-28,8152.0
2004-05-29,8332.0
2004-05-30,8352.0
2004-05-31,8372.0
2004-06-01,8372.0
2004-06-02,8391.0
2004-06-03,8411.0
2004-06-04,8431.0
2004-06-05,8431.0
2004-06-06,8431.0
2004-06-07,8431.0
2004-06-08,8411.0
2004-06-09,8391.0
2004-06-10,8372.0
2004-06-11,8352.0
2004-06-12,8352.0
2004-06-13,8352.0
2004-06-14,8352.0
2004-06-15,8347.0
2004-06-16,8342.0
2004-06-17,8337.0
2004-06-18,8332.0
2004-06-19,8325.33333
2004-06-20,8318.66667
2004-06-21,8312.0
2004-06-22,8307.25
2004-06-23,8302.5
2004-06-24,8297.75
2004-06-25,8293.0
2004-06-26,8288.0
2004-06-27,8283.0
2004-06-28,8278.0
2004-06-29,8273.0
2004-06-30,8273.0
2004-07-01,8254.0
2004-07-02,8250.0
2004-07-03,8246.0
2004-07-04,8242.0
2004-07-05,8238.0
2004-07-06,8234.0
2004-07-07,8194.0
2004-07-08,8152.0
2004-07-09,8110.0
2004-07-10,8060.6
2004-07-11,8011.2
2004-07-12,7962.8
2004-07-13,7914.0
2004-07-14,7865.0
2004-07-15,7825.0
2004-07-16,7790.0
2004-07-17,7755.5
2004-07-18,7721.0
2004-07-19,7686.0
2004-07-20,7657.0
2004-07-21,7628.0
2004-07-22,7598.5
2004-07-23,7569.0
2004-07-24,7516.0
2004-07-25,7463.5
2004-07-26,7411.25
2004-07-27,7359.0
2004-07-28,7303.0
2004-07-29,7247.0
2004-07-30,7188.0
2004-07-31,7148.0
2004-08-01,7109.0
2004-08-02,7049.0
2004-08-03,7010.0
2004-08-04,6971.0
2004-08-05,6932.0
2004-08-06,6894.0
2004-08-07,6847.4
2004-08-08,6801.8
2004-08-09,6756.4
2004-08-10,6711.6
2004-08-11,6667.0
2004-08-12,6620.5
2004-08-13,6574.0
2004-08-14,6531.66667
2004-08-15,6489.0
2004-08-16,6447.0
2004-08-17,6411.0
2004-08-18,6372.16667
2004-08-19,6334.0
2004-08-20,6296.0
2004-08-21,6254.66667
2004-08-22,6213.16667
2004-08-23,6172.0
2004-08-24,6134.0
2004-08-25,6097.0
2004-08-26,6056.0
2004-08-27,6016.0
2004-08-28,5976.0
2004-08-29,5936.33333
2004-08-30,5897.0
2004-08-31,5858.0
2004-09-01,5822.0
2004-09-02,5786.0
2004-09-03,5742.0
2004-09-04,5698.0
2004-09-05,5686.0
2004-09-06,5674.33333
2004-09-07,5663.0
2004-09-08,5663.0
2004-09-09,5663.0
2004-09-10,5658.5
2004-09-11,5654.0
2004-09-12,5649.5
2004-09-13,5645.0
2004-09-14,5645.0
2004-09-15,5645.0
2004-09-16,5645.0
2004-09-17,5645.0
2004-09-18,5645.0
2004-09-19,5645.0
2004-09-20,5645.0
2004-09-21,5628.0
2004-09-22,5611.0
2004-09-23,5611.0
2004-09-24,5611.0
2004-09-25,5611.0
2004-09-26,5611.0
2004-09-27,5611.0
2004-09-28,5611.0
2004-09-29,5611.0
2004-09-30,5611.0
2004-10-01,5611.0
2004-10-02,5611.0
2004-10-03,5611.0
2004-10-04,5611.0
2004-10-05,5611.0
2004-10-06,5611.0
2004-10-07,5611.0
2004-10-08,5611.0
2004-10-09,5611.0
2004-10-10,5611.0
2004-10-11,5611.0
2004-10-12,5611.0
2004-10-13,5611.0
2004-10-14,5611.0
2004-10-15,5611.0
2004-10-16,5611.0
2004-10-17,5611.0
2004-10-18,5611.0
2004-10-19,5611.0
2004-10-20,5663.0
2004-10-21,5715.0
2004-10-22,5736.6
2004-10-23,5757.8
2004-10-24,5778.8
2004-10-25,5800.4
2004-10-26,5822.0
2004-10-27,5840.0
2004-10-28,5858.0
2004-10-29,5876.0
2004-10-30,5876.0
2004-10-31,5876.0
2004-11-01,5876.0
2004-11-02,5912.0
2004-11-03,5949.0
2004-11-04,5967.0
2004-11-05,5985.0
2004-11-06,6004.0
2004-11-07,6022.0
2004-11-08,6041.0
2004-11-09,6062.16667
2004-11-10,6084.33333
2004-11-11,6106.0
2004-11-12,6127.66667
2004-11-13,6149.83333
2004-11-14,6172.0
2004-11-15,6191.0
2004-11-16,6210.0
2004-11-17,6229.0
2004-11-18,6240.4
2004-11-19,6252.0
2004-11-20,6264.0
2004-11-21,6275.6
2004-11-22,6287.0
2004-11-23,6302.42857
2004-11-24,6317.14286
2004-11-25,6332.28571
2004-11-26,6347.71429
2004-11-27,6362.85714
2004-11-28,6377.57143
2004-11-29,6393.0
2004-11-30,6393.0
2004-12-01,6393.0
2004-12-02,6407.4
2004-12-03,6421.8
2004-12-04,6436.2
2004-12-05,6450.6
2004-12-06,6465.0
2004-12-07,6477.0
2004-12-08,6489.0
2004-12-09,6501.0
2004-12-10,6513.0
2004-12-11,6525.33333
2004-12-12,6538.0
2004-12-13,6550.0
2004-12-14,6562.0
2004-12-15,6574.0
2004-12-16,6582.76923
2004-12-17,6591.53846
2004-12-18,6599.92308
2004-12-19,6608.23077
2004-12-20,6616.84615
2004-12-21,6625.61538
2004-12-22,6634.15385
2004-12-23,6642.46154
2004-12-24,6650.92308
2004-12-25,6659.69231
2004-12-26,6668.38462
2004-12-27,6676.69231
2004-12-28,6685.0
2004-12-29,6691.33333
2004-12-30,6697.66667
2004-12-31,6704.0
2005-01-01,6704.0
2005-01-02,6713.5
2005-01-03,6723.0
2005-01-04,6737.25
2005-01-05,6751.0
2005-01-06,6764.75
2005-01-07,6779.0
2005-01-08,6793.25
2005-01-09,6807.5
2005-01-10,6821.75
2005-01-11,6836.0
2005-01-12,6836.0
2005-01-13,6836.0
2005-01-14,6823.33333
2005-01-15,6810.66667
2005-01-16,6798.0
2005-01-17,6785.33333
2005-01-18,6772.66667
2005-01-19,6760.0
2005-01-20,6756.4
2005-01-21,6752.8
2005-01-22,6749.2
2005-01-23,6745.6
2005-01-24,6742.0
2005-01-25,6742.0
2005-01-26,6742.0
2005-01-27,6742.0
2005-01-28,6742.0
2005-01-29,6742.0
2005-01-30,6742.0
2005-01-31,6742.0
2005-02-01,6742.0
2005-02-02,6742.0
2005-02-03,6742.0
2005-02-04,6742.0
2005-02-05,6742.0
2005-02-06,6742.0
2005-02-07,6742.0
2005-02-08,6742.0
2005-02-09,6742.0
2005-02-10,6742.0
2005-02-11,6742.0
2005-02-12,6742.0
2005-02-13,6742.0
2005-02-14,6742.0
2005-02-15,6742.0
2005-02-16,6742.0
2005-02-17,6742.0
2005-02-18,6742.0
2005-02-19,6742.0
2005-02-20,6742.0
2005-02-21,6742.0
2005-02-22,6742.0
2005-02-23,6742.0
2005-02-24,6742.0
2005-02-25,6742.0
2005-02-26,6742.0
2005-02-27,6742.0
2005-02-28,6742.0
2005-03-01,6742.0
2005-03-02,6751.0
2005-03-03,6752.8
2005-03-04,6754.6
2005-03-05,6756.4
2005-03-06,6758.2
2005-03-07,6760.0
2005-03-08,6760.0
2005-03-09,6760.0
2005-03-10,6760.0
2005-03-11,6760.0
2005-03-12,6760.0
2005-03-13,6760.0
2005-03-14,6760.0
2005-03-15,6760.0
2005-03-16,6770.85714
2005-03-17,6781.71429
2005-03-18,6792.57143
2005-03-19,6803.42857
2005-03-20,6814.28571
2005-03-21,6825.14286
2005-03-22,6836.0
2005-03-23,6836.0
2005-03-24,6836.0
2005-03-25,6836.0
2005-03-26,6836.0
2005-03-27,6836.0
2005-03-28,6836.0
2005-03-29,6836.0
2005-03-30,6836.0
2005-03-31,6836.0
2005-04-01,6836.0
2005-04-02,6836.0
2005-04-03,6836.0
2005-04-04,6836.0
2005-04-05,6836.0
2005-04-06,6836.0
2005-04-07,6845.5
2005-04-08,6855.0
2005-04-09,6877.71429
2005-04-10,6899.42857
2005-04-11,6921.14286
2005-04-12,6943.42857
2005-04-13,6965.57143
2005-04-14,6988.14286
2005-04-15,7010.0
2005-04-16,7042.66667
2005-04-17,7075.66667
2005-04-18,7109.0
2005-04-19,7121.66667
2005-04-20,7134.66667
2005-04-21,7148.0
2005-04-22,7111.375
2005-04-23,7074.0
2005-04-24,7037.125
2005-04-25,7000.5
2005-04-26,7000.5
2005-04-27,7000.5
2005-04-28,7000.5
2005-04-29,7000.5
2005-04-30,7000.5
2005-05-01,6932.0
2005-05-02,6884.5
2005-05-03,6836.0
2005-05-04,6826.5
2005-05-05,6817.0
2005-05-06,6807.5
2005-05-07,6861.66667
2005-05-08,6916.16667
2005-05-09,6971.0
2005-05-10,6971.0
2005-05-11,6971.0
2005-05-12,6932.0
2005-05-13,6894.0
2005-05-14,6942.0
2005-05-15,6991.0
2005-05-16,7039.5
2005-05-17,7089.0
2005-05-18,7168.0
2005-05-19,7247.0
2005-05-20,7492.0
2005-05-21,7946.0
2005-05-22,8411.0
2005-05-23,8451.0
2005-05-24,8436.0
2005-05-25,8421.0
2005-05-26,8406.0
2005-05-27,8391.0
2005-05-28,8376.75
2005-05-29,8362.0
2005-05-30,8347.0
2005-05-31,8332.0
2005-06-01,8332.0
2005-06-02,8302.5
2005-06-03,8273.0
2005-06-04,8312.0
2005-06-05,8352.0
2005-06-06,8391.0
2005-06-07,8342.0
2005-06-08,8293.0
2005-06-09,8285.0
2005-06-10,8277.0
2005-06-11,8269.2
2005-06-12,8261.6
2005-06-13,8254.0
2005-06-14,8325.33333
2005-06-15,8397.66667
2005-06-16,8471.0
2005-06-17,8463.0
2005-06-18,8455.0
2005-06-19,8447.0
2005-06-20,8439.0
2005-06-21,8431.0
2005-06-22,8431.0
2005-06-23,8431.0
2005-06-24,8407.66667
2005-06-25,8384.66667
2005-06-26,8362.0
2005-06-27,8338.66667
2005-06-28,8315.33333
2005-06-29,8293.0
2005-06-30,8332.0
2005-07-01,8391.0
2005-07-02,8381.5
2005-07-03,8372.0
2005-07-04,8362.0
2005-07-05,8352.0
2005-07-06,8358.66667
2005-07-07,8365.33333
2005-07-08,8372.0
2005-07-09,8358.66667
2005-07-10,8345.33333
2005-07-11,8332.0
2005-07-12,8325.33333
2005-07-13,8318.66667
2005-07-14,8312.0
2005-07-15,8302.5
2005-07-16,8293.0
2005-07-17,8283.0
2005-07-18,8273.0
2005-07-19,8273.0
2005-07-20,8273.0
2005-07-21,8273.0
2005-07-22,8273.0
2005-07-23,8273.0
2005-07-24,8273.0
2005-07-25,8273.0
2005-07-26,8273.0
2005-07-27,8273.0
2005-07-28,8273.0
2005-07-29,8254.0
2005-07-30,8234.0
2005-07-31,8215.0
2005-08-01,8215.0
2005-08-02,8188.75
2005-08-03,8162.5
2005-08-04,8136.25
2005-08-05,8110.0
2005-08-06,8071.625
2005-08-07,8033.0
2005-08-08,7994.5
2005-08-09,7956.5
2005-08-10,7926.0
2005-08-11,7886.0
2005-08-12,7845.0
2005-08-13,7805.0
2005-08-14,7765.0
2005-08-15,7726.0
2005-08-16,7686.0
2005-08-17,7647.0
2005-08-18,7608.0
2005-08-19,7565.2
2005-08-20,7523.0
2005-08-21,7480.6
2005-08-22,7446.8
2005-08-23,7397.0
2005-08-24,7352.66667
2005-08-25,7309.33333
2005-08-26,7266.0
2005-08-27,7222.0
2005-08-28,7174.66667
2005-08-29,7128.0
2005-08-30,7089.0
2005-08-31,7049.0
2005-09-01,7010.0
2005-09-02,6967.2
2005-09-03,6924.4
2005-09-04,6882.6
2005-09-05,6839.8
2005-09-06,6798.0
2005-09-07,6760.0
2005-09-08,6723.0
2005-09-09,6718.25
2005-09-10,6713.5
2005-09-11,6708.75
2005-09-12,6704.0
2005-09-13,6704.0
2005-09-14,6704.0
2005-09-15,6704.0
2005-09-16,6704.0
2005-09-17,6700.83333
2005-09-18,6697.66667
2005-09-19,6694.5
2005-09-20,6692.125
2005-09-21,6689.75
2005-09-22,6687.375
2005-09-23,6685.0
2005-09-24,6682.0
2005-09-25,6679.0
2005-09-26,6676.0
2005-09-27,6676.0
2005-09-28,6676.0
2005-09-29,6676.0
2005-09-30,6676.0
2005-10-01,6676.0
2005-10-02,6671.5
2005-10-03,6667.0
2005-10-04,6664.625
2005-10-05,6662.25
2005-10-06,6659.875
2005-10-07,6657.5
2005-10-08,6654.33333
2005-10-09,6651.16667
2005-10-10,6648.0
2005-10-11,6645.75
2005-10-12,6643.5
2005-10-13,6641.25
2005-10-14,6639.0
2005-10-15,6636.75
2005-10-16,6634.5
2005-10-17,6632.25
2005-10-18,6630.0
2005-10-19,6630.0
2005-10-20,6628.41667
2005-10-21,6626.83333
2005-10-22,6625.25
2005-10-23,6623.66667
2005-10-24,6622.08333
2005-10-25,6620.5
2005-10-26,6620.5
2005-10-27,6620.5
2005-10-28,6620.5
2005-10-29,6620.5
2005-10-30,6620.5
2005-10-31,6620.5
2005-11-01,6620.5
2005-11-02,6620.5
2005-11-03,6620.5
2005-11-04,6620.5
2005-11-05,6620.5
2005-11-06,6620.5
2005-11-07,6620.5
2005-11-08,6620.5
2005-11-09,6620.5
2005-11-10,6620.5
2005-11-11,6627.625
2005-11-12,6634.5
2005-11-13,6641.25
2005-11-14,6648.0
2005-11-15,6648.0
2005-11-16,6648.0
2005-11-17,6648.0
2005-11-18,6648.0
2005-11-19,6648.0
2005-11-20,6648.0
2005-11-21,6648.0
2005-11-22,6648.0
2005-11-23,6648.0
2005-11-24,6648.0
2005-11-25,6648.0
2005-11-26,6648.0
2005-11-27,6648.0
2005-11-28,6648.0
2005-11-29,6648.0
2005-11-30,6648.0
2005-12-01,6648.0
2005-12-02,6650.71429
2005-12-03,6653.42857
2005-12-04,6656.14286
2005-12-05,6658.85714
2005-12-06,6661.57143
2005-12-07,6664.28571
2005-12-08,6667.0
2005-12-09,6667.0
2005-12-10,6667.0
2005-12-11,6667.0
2005-12-12,6667.0
2005-12-13,6667.0
2005-12-14,6667.0
2005-12-15,6667.0
2005-12-16,6667.0
2005-12-17,6667.0
2005-12-18,6667.0
2005-12-19,6667.0
2005-12-20,6667.0
2005-12-21,6668.28571
2005-12-22,6669.57143
2005-12-23,6670.85714
2005-12-24,6672.14286
2005-12-25,6673.42857
2005-12-26,6674.71429
2005-12-27,6676.0
2005-12-28,6676.0
2005-12-29,6676.0
2005-12-30,6676.0
2005-12-31,6676.0
2006-01-01,6676.0
2006-01-02,6687.375
2006-01-03,6699.25
2006-01-04,6711.125
2006-01-05,6723.0
2006-01-06,6723.0
2006-01-07,6723.0
2006-01-08,6723.0
2006-01-09,6723.0
2006-01-10,6723.0
2006-01-11,6723.0
2006-01-12,6723.0
2006-01-13,6723.0
2006-01-14,6723.0
2006-01-15,6723.0
2006-01-16,6723.0
2006-01-17,6723.0
2006-01-18,6723.0
2006-01-19,6723.0
2006-01-20,6723.0
2006-01-21,6723.0
2006-01-22,6723.0
2006-01-23,6723.0
2006-01-24,6723.0
2006-01-25,6723.0
2006-01-26,6723.0
2006-01-27,6723.0
2006-01-28,6723.0
2006-01-29,6723.0
2006-01-30,6723.0
2006-01-31,6723.0
2006-02-01,6723.0
2006-02-02,6723.0
2006-02-03,6723.0
2006-02-04,6723.0
2006-02-05,6723.0
2006-02-06,6723.0
2006-02-07,6723.0
2006-02-08,6723.0
2006-02-09,6723.0
2006-02-10,6723.0
2006-02-11,6723.0
2006-02-12,6723.0
2006-02-13,6723.0
2006-02-14,6723.0
2006-02-15,6723.0
2006-02-16,6723.0
2006-02-17,6723.0
2006-02-18,6723.0
2006-02-19,6723.0
2006-02-20,6723.0
2006-02-21,6723.0
2006-02-22,6723.0
2006-02-23,6723.0
2006-02-24,6723.0
2006-02-25,6723.0
2006-02-26,6723.0
2006-02-27,6723.0
2006-02-28,6723.0
2006-03-01,6723.0
2006-03-02,6723.0
2006-03-03,6723.0
2006-03-04,6723.0
2006-03-05,6723.0
2006-03-06,6723.0
2006-03-07,6723.0
2006-03-08,6723.0
2006-03-09,6723.0
2006-03-10,6723.0
2006-03-11,6723.0
2006-03-12,6723.0
2006-03-13,6723.0
2006-03-14,6723.0
2006-03-15,6727.75
2006-03-16,6732.5
2006-03-17,6737.25
2006-03-18,6742.0
2006-03-19,6746.5
2006-03-20,6751.0
2006-03-21,6755.5
2006-03-22,6760.0
2006-03-23,6760.0
2006-03-24,6760.0
2006-03-25,6760.0
2006-03-26,6760.0
2006-03-27,6760.0
2006-03-28,6760.0
2006-03-29,6760.0
2006-03-30,6760.0
2006-03-31,6760.0
2006-04-01,6760.0
2006-04-02,6772.66667
2006-04-03,6785.33333
2006-04-04,6798.0
2006-04-05,6821.22222
2006-04-06,6844.44444
2006-04-07,6868.33333
2006-04-08,6891.88889
2006-04-09,6915.11111
2006-04-10,6938.66667
2006-04-11,6962.55556
2006-04-12,6986.55556
2006-04-13,7010.0
2006-04-14,7040.85714
2006-04-15,7071.85714
2006-04-16,7103.28571
2006-04-17,7133.71429
2006-04-18,7165.14286
2006-04-19,7196.57143
2006-04-20,7229.0
2006-04-21,7243.4
2006-04-22,7258.4
2006-04-23,7273.2
2006-04-24,7287.8
2006-04-25,7303.0
2006-04-26,7325.6
2006-04-27,7347.6
2006-04-28,7370.4
2006-04-29,7393.2
2006-04-30,7416.0
2006-05-01,7445.0
2006-05-02,7445.0
2006-05-03,7445.0
2006-05-04,7437.75
2006-05-05,7430.5
2006-05-06,7309.33333
2006-05-07,7191.33333
2006-05-08,7069.0
2006-05-09,6981.0
2006-05-10,6894.0
2006-05-11,7023.33333
2006-05-12,7154.66667
2006-05-13,7284.0
2006-05-14,7409.66667
2006-05-15,7537.33333
2006-05-16,7667.0
2006-05-17,7997.0
2006-05-18,8332.0
2006-05-19,8411.0
2006-05-20,8411.0
2006-05-21,8411.0
2006-05-22,8411.0
2006-05-23,8381.5
2006-05-24,8352.0
2006-05-25,8362.0
2006-05-26,8372.0
2006-05-27,8317.0
2006-05-28,8263.5
2006-05-29,8209.75
2006-05-30,8152.0
2006-05-31,8173.0
2006-06-01,8293.0
2006-06-02,8352.0
2006-06-03,8365.33333
2006-06-04,8378.33333
2006-06-05,8391.0
2006-06-06,8381.5
2006-06-07,8372.0
2006-06-08,8362.0
2006-06-09,8352.0
2006-06-10,8342.0
2006-06-11,8332.0
2006-06-12,8322.0
2006-06-13,8312.0
2006-06-14,8352.0
2006-06-15,8352.0
2006-06-16,8352.0
2006-06-17,8347.0
2006-06-18,8342.0
2006-06-19,8337.0
2006-06-20,8332.0
2006-06-21,8332.0
2006-06-22,8332.0
2006-06-23,8312.0
2006-06-24,8305.66667
2006-06-25,8299.33333
2006-06-26,8293.0
2006-06-27,8283.0
2006-06-28,8273.0
2006-06-29,8263.5
2006-06-30,8254.0
2006-07-01,8254.0
2006-07-02,8254.0
2006-07-03,8254.0
2006-07-04,8254.0
2006-07-05,8254.0
2006-07-06,8250.0
2006-07-07,8246.0